Keps
Threads by month
- ----- 2025 -----
- February
- January
- ----- 2024 -----
- December
- November
- October
- September
- August
- July
- June
- May
- April
- March
- February
- January
- ----- 2023 -----
- December
- November
- October
- September
- August
- July
- June
- May
- April
- March
- February
- January
- ----- 2022 -----
- December
- November
- October
- September
- August
- July
- June
- May
- April
- March
- February
- January
- ----- 2021 -----
- December
- November
- October
- September
- August
- July
- June
- May
- April
- March
- February
- January
- ----- 2020 -----
- December
- November
- October
- September
- August
- July
- June
- May
- April
- March
- February
- January
- ----- 2019 -----
- December
- November
- October
- September
- August
- July
- June
- May
- April
- March
- February
- January
- ----- 2018 -----
- December
- November
- October
- September
- August
- July
- June
- May
- April
- March
- February
- January
- ----- 2017 -----
- December
- November
- October
- September
- August
- July
- June
- May
- April
- March
- February
- January
- ----- 2016 -----
- December
- November
- October
- September
- August
- July
- June
- May
- April
- March
- February
- January
- ----- 2015 -----
- December
- November
- October
- September
- August
- July
- June
- May
- April
- March
- February
- January
- ----- 2014 -----
- December
- November
- October
- September
- August
- July
- June
- May
- April
- March
- February
- January
- ----- 2013 -----
- December
- November
- October
- September
- August
- July
- June
- May
- April
- March
- February
- January
- ----- 2012 -----
- December
- November
- October
- September
- August
- July
- June
- May
- April
- March
- February
- January
- ----- 2011 -----
- December
- November
- October
- September
- August
- July
- June
- May
- April
- March
- February
- January
- ----- 2010 -----
- December
- November
- October
- September
- August
- July
- June
- May
- April
- March
- February
- January
- ----- 2009 -----
- December
- November
- October
- September
- August
- July
- June
- May
- April
- March
- February
- January
- ----- 2008 -----
- December
- November
- October
- September
- August
- July
- June
- May
- April
- March
- February
- January
- ----- 2007 -----
- December
- November
- October
- September
- August
- July
- June
- May
- April
- March
- February
- January
- ----- 2006 -----
- December
- November
- October
- September
July 2013
- 1 participants
- 8 discussions
SB KEPS @ AMSAT $ORB13206.N
2Line Orbital Elements 13206.AMSAT
HR AMSAT ORBITAL ELEMENTS FOR AMATEUR SATELLITES IN NASA FORMAT
FROM WA5QGD FORT WORTH,TX July 25, 2013
BID: ORB13206.N
DECODE 2-LINE ELSETS WITH THE FOLLOWING KEY:
1 AAAAAU 00 0 0 BBBBB.BBBBBBBB .CCCCCCCC 00000-0 00000-0 0 DDDZ
2 AAAAA EEE.EEEE FFF.FFFF GGGGGGG HHH.HHHH III.IIII JJ.JJJJJJJJKKKKKZ
KEY: A-CATALOGNUM B-EPOCHTIME C-DECAY D-ELSETNUM E-INCLINATION F-RAAN
G-ECCENTRICITY H-ARGPERIGEE I-MNANOM J-MNMOTION K-ORBITNUM Z-CHECKSUM
TO ALL RADIO AMATEURS BT
AO-07
1 07530U 74089B 13205.55616562 -.00000032 00000-0 67792-4 0 7360
2 07530 101.4344 193.7101 0011682 212.8169 294.7640 12.53597099770469
FO-29
1 24278U 96046B 13205.78896124 -.00000050 00000-0 -17026-4 0 1623
2 24278 098.5526 259.3186 0351307 066.8373 044.1403 13.53004324836396
SO-33
1 25509U 98061B 13205.43129721 .00000005 00000-0 -10620-4 0 5451
2 25509 031.4311 216.7439 0351079 124.0059 019.1898 14.29102817770223
RS-22
1 27939U 03042A 13206.85350752 .00000352 00000-0 74793-4 0 6166
2 27939 097.7997 032.6826 0014613 066.4937 293.7810 14.64518355524954
VO-52
1 28650U 05017B 13205.49738037 .00000782 00000-0 99384-4 0 4827
2 28650 097.5681 222.1862 0026927 155.2205 008.9560 14.84001277444619
HO-68
1 36122U 09072B 13206.28138362 -.00000044 00000-0 00000 0 0 7533
2 36122 100.3030 262.3668 0007171 266.6467 093.3834 13.16305650173426
UO-11
1 14781U 84021B 13206.75547204 .00000357 00000-0 52893-4 0 2395
2 14781 097.8999 267.5112 0009814 156.4369 203.7295 14.80955959579648
AO-16
1 20439U 90005D 13206.78206600 .00000072 00000-0 42743-4 0 8018
2 20439 098.4716 145.9164 0011671 049.9829 342.8472 14.32191176227761
LO-19
1 20442U 90005G 13205.90927446 .00000075 00000-0 43341-4 0 7357
2 20442 098.4410 146.7290 0012501 042.8686 003.1232 14.32401027227839
AO-27
1 22825U 93061C 13206.83453936 .00000054 00000-0 38416-4 0 4395
2 22825 098.6193 150.4548 0008814 167.6849 226.3138 14.29577839 34159
IO-26
1 22826U 93061D 13205.91915718 .00000070 00000-0 44312-4 0 1943
2 22826 098.6135 149.8277 0009433 164.1856 241.7234 14.29863261 34150
GO-32
1 25397U 98043D 13205.02633630 .00000037 00000-0 34419-4 0 1205
2 25397 098.4181 171.1880 0001818 146.4448 278.0781 14.23350561781182
NO-44
1 26931U 01043C 13206.38419179 .00000037 00000-0 46562-4 0 3792
2 26931 067.0521 161.0413 0007907 275.1701 229.0812 14.29943365616885
SO-50
1 27607U 02058C 13206.59994091 .00000544 00000-0 83227-4 0 1255
2 27607 064.5565 147.1969 0041133 151.5319 208.8542 14.73007277569376
CO-55
1 27844U 03031E 13206.43882387 .00000156 00000-0 91745-4 0 7009
2 27844 098.7017 214.9551 0010795 135.2022 330.8491 14.21245369522164
CO-57
1 27848U 03031J 13206.59553318 .00000123 00000-0 76964-4 0 6468
2 27848 098.7104 214.6422 0010608 140.1505 006.9783 14.20968154522116
AO-51
1 28375U 04025K 13206.45364234 .00000090 00000-0 40102-4 0 6132
2 28375 098.2039 160.3842 0082190 260.0323 248.5502 14.41142385476846
CP3
1 31129U 07012N 13206.47712256 .00000481 00000-0 11818-3 0 5128
2 31129 097.9002 196.9582 0098653 308.6729 215.7807 14.53742623332556
CO-65
1 32785U 08021C 13206.19844948 .00000906 00000-0 11490-3 0 6928
2 32785 097.7486 262.6459 0014840 177.3773 218.6455 14.83993982283510
PRISM
1 33493U 09002B 13206.45805841 .00002076 00000-0 24216-3 0 152
2 33493 098.2219 004.6642 0019417 069.7823 290.5476 14.86228297243601
SOHLA-1
1 33496U 09002E 13205.91098155 .00000247 00000-0 49103-4 0 1036
2 33496 098.1386 321.8384 0006624 190.6346 280.7780 14.70330300241413
SO-67
1 35870U 09049F 13206.76386255 .00003843 00000-0 14533-3 0 2696
2 35870 097.1896 234.1397 0002414 135.6095 344.3863 15.27537930214149
TISAT-1
1 36799U 10035E 13206.83597058 .00001373 00000-0 17358-3 0 2893
2 36799 098.0342 291.7588 0013303 306.3934 053.6025 14.83483455164300
STUDSAT
1 36801U 10035G 13205.83898211 .00003788 00000-0 40980-3 0 6579
2 36801 098.0453 294.2534 0009947 284.4845 219.8584 14.88868410164312
ALMASAT-1
1 38078U 12006B 13206.78258516 .00019452 00000-0 49445-3 0 4668
2 38078 069.4718 111.3295 0685695 097.5986 270.3505 14.26586191 74745
XATCOBEO
1 38082U 12006F 13206.73061273 .00066957 36391-5 12741-2 0 3510
2 38082 069.4734 082.1213 0551925 081.4825 284.8318 14.60960743 75543
SOMP
1 39135U 13015F 13206.10107730 .00002641 00000-0 22154-3 0 2052
2 39135 064.8778 089.5042 0009197 202.9218 315.1068 15.00523219 14514
CUBEBUG-1
1 39153U 13018D 13206.22212081 .00000708 00000-0 10893-3 0 2491
2 39153 098.0729 281.9694 0017453 325.9806 034.0301 14.76517793 13296
ESTCUBE-1
1 39161U 13021C 13206.71666715 .00000616 00000-0 11334-3 0 2179
2 39161 098.1258 284.7698 0010284 358.0079 002.1084 14.69034304 11658
NOAA-10
1 16969U 86073A 13205.48223543 .00000022 00000-0 26154-4 0 4370
2 16969 098.5442 232.5057 0013367 133.9152 332.1704 14.27653602397266
NOAA-11
1 19531U 88089A 13206.49527987 .00000024 00000-0 34827-4 0 4466
2 19531 098.7095 288.6236 0012092 148.4836 282.3274 14.15022825281540
NOAA-12
1 21263U 91032A 13205.45931738 .00000011 00000-0 23026-4 0 9113
2 21263 098.6959 230.5474 0015040 111.2293 353.3997 14.25578031153864
MET-3/5
1 21655U 91056A 13206.15772630 .00000358 00000-0 89806-3 0 7441
2 21655 082.5534 227.4650 0013868 040.2096 320.0049 13.17044766 54939
MET-2/21
1 22782U 93055A 13206.73197713 .00000001 00000-0 -12559-4 0 7999
2 22782 082.5470 072.3410 0023720 101.5900 301.1377 13.83709461 4970
OKEAN-4
1 23317U 94066A 13206.83085100 .00000666 00000-0 75697-4 0 2784
2 23317 082.5393 013.6181 0022644 099.2507 037.0525 14.84552988 14672
NOAA-14
1 23455U 94089A 13205.44961571 .00000069 00000-0 59520-4 0 3913
2 23455 098.8017 289.3235 0008594 248.0889 240.9950 14.13913812957633
NOAA-15
1 25338U 98030A 13206.81806499 .00000176 00000-0 74892-4 0 8153
2 25338 098.7262 196.8139 0011062 020.8614 339.3487 14.25246831790352
RESURS
1 25394U 98043A 13206.71223804 -.00000016 00000-0 10797-4 0 4290
2 25394 098.3651 180.7107 0002534 120.7543 282.9376 14.24333325781842
FENGYUN1
1 25730U 99025A 13204.91610196 .00000382 00000-0 23839-3 0 9233
2 25730 098.8792 163.9796 0024167 308.1491 084.9497 14.10581294731220
OKEAN-0
1 25860U 99039A 13204.49075358 .00000290 00000-0 51052-4 0 14
2 25860 097.9933 166.4603 0001826 082.2263 021.2289 14.74649231753706
NOAA-16
1 26536U 00055A 13206.77900434 .00000096 00000-0 51542-4 0 2997
2 26536 099.0398 259.9170 0010943 030.9922 329.2370 14.12898619662028
NOAA-17
1 27453U 02032A 13206.82620017 .00000119 00000-0 51264-4 0 2116
2 27453 098.3124 218.8549 0012646 055.2237 305.0603 14.24606328576225
NOAA-18
1 28654U 05018A 13206.83001862 .00000077 00000-0 42032-4 0 6984
2 28654 099.1015 175.6038 0015130 099.3339 261.0017 14.11841565421514
NOAA-19
1 33591U 09005A 13206.78687054 .00000233 00000-0 12822-3 0 8795
2 33591 098.9038 148.5451 0013667 324.6474 035.4273 14.11530114229942
HUBBLE
1 20580U 90037B 13205.83872610 .00001342 00000-0 83137-4 0 2887
2 20580 028.4712 025.9736 0003380 032.7838 105.8581 15.03787402 75375
ISS
1 25544U 98067A 13206.80459653 .00005545 00000-0 10495-3 0 2592
2 25544 051.6506 276.9831 0004200 223.2207 236.6555 15.50032004840694
CO-58
1 28895U 05043F 13205.60875635 .00000310 00000-0 71805-4 0 5305
2 28895 097.8663 059.0980 0016568 327.6525 032.3660 14.61174330412401
FALCON
1 30776U 07006E 13205.82059041 .00003374 00000-0 20025-3 0 6598
2 30776 035.4316 331.1798 0001965 272.4062 221.6101 15.11004388351118
MAST
1 31126U 07012K 13205.01088626 .00000261 00000-0 68254-4 0 8093
2 31126 097.8836 198.8356 0091704 298.1897 094.1622 14.54627829332674
